Saguache, CO

5:40 PM MDT on August 30, 2016 (GMT -0600)
Saguache

Weather History for K04V - December, 2012

Change the Weather History Date:

Monday, December 3, 2012

  Actual Average (KALS) Record (KALS)
Temperature  
Mean Temperature 38 °F 21 °F  
Max Temperature 53 °F 38 °F 62 °F (2010)
Min Temperature 24 °F 4 °F -20 °F (1943)
Degree Days  
Heating Degree Days 26 44  
Month to date heating degree days 130  
Since 1 July heating degree days 2305  
Cooling Degree Days 0 0  
Month to date cooling degree days 0  
Year to date cooling degree days 51  
Moisture  
Dew Point 20 °F    
Average Humidity 50    
Maximum Humidity 69    
Minimum Humidity 26    
Precipitation  
Precipitation 0.00 in 0.01 in 0.91 in (1964)
Month to date precipitation 0.03  
Year to date precipitation 6.99  
Snow  
Snow 0.00 in 0.10 in 14.70 in (1964)
Month to date snowfall 0.4  
Since 1 July snowfall 6.2  
Snow Depth -    
Sea Level Pressure  
Sea Level Pressure 30.12 in    
Wind  
Wind Speed 9 mph (NNW)    
Max Wind Speed 22 mph    
Max Gust Speed 32 mph    
Visibility 10 miles    
Events      
T = Trace of Precipitation, MM = Missing Value Source: NWS Daily Summary

Daily Weather History Graph

Daily Weather History Graph

Search for Another Location

Airport or City:

Trip Planner

Search our weather history database for the weather conditions in past years. The results will help you decide how hot, cold, wet, or windy it might be!

Date:

Astronomy

Dec. 03, 2012 Rise Set
Actual Time 7:04 AM MST 4:44 PM MST
Civil Twilight 6:35 AM MST 5:13 PM MST
Nautical Twilight 6:02 AM MST 5:46 PM MST
Astronomical Twilight 5:30 AM MST 6:18 PM MST
Moon 9:31 PM MST (12/3) 10:31 AM MST (12/3)
Length of Visible Light 10h 38m
Length of Day
9h 40m
Waning Gibbous, 77% of the Moon is Illuminated
Dec 3
Waning Gibbous
Dec 6
Last Quarter
Dec 13
New
Dec 19
First Quarter
Dec 28
Full

Hourly Weather History & Observations

Time (MST) Temp. Windchill Dew Point Humidity Pressure Visibility Wind Dir Wind Speed Gust Speed Precip Events Conditions
12:15 AM 24.8 °F 15.3 °F 14.0 °F 64% 30.03 in 10.0 mi NNE 9.2 mph - N/A   Clear
12:35 AM 24.8 °F 14.6 °F 14.0 °F 64% 30.04 in 10.0 mi NW 10.4 mph - N/A   Clear
12:54 AM 26.6 °F 15.7 °F 15.8 °F 64% 30.02 in 10.0 mi North 12.7 mph - N/A   Clear
1:14 AM 24.8 °F 20.5 °F 14.0 °F 64% 30.01 in 10.0 mi North 3.5 mph - N/A   Scattered Clouds
1:35 AM 24.8 °F 14.6 °F 15.8 °F 69% 30.01 in 10.0 mi NNW 10.4 mph - N/A   Clear
1:55 AM 24.8 °F 14.0 °F 15.8 °F 69% 30.00 in 10.0 mi North 11.5 mph - N/A   Clear
2:15 AM 24.8 °F 19.1 °F 14.0 °F 64% 30.02 in 10.0 mi West 4.6 mph - N/A   Clear
2:34 AM 26.6 °F 16.2 °F 15.8 °F 64% 30.01 in 10.0 mi NNW 11.5 mph - N/A   Clear
2:55 AM 26.6 °F 20.0 °F 15.8 °F 64% 30.02 in 10.0 mi NE 5.8 mph - N/A   Clear
3:15 AM 28.4 °F 23.3 °F 15.8 °F 59% 30.02 in 10.0 mi NNW 4.6 mph - N/A   Scattered Clouds
3:35 AM 28.4 °F 21.2 °F 17.6 °F 64% 30.02 in 10.0 mi NNW 6.9 mph - N/A   Mostly Cloudy
3:55 AM 30.2 °F 24.3 °F 17.6 °F 60% 30.04 in 10.0 mi North 5.8 mph - N/A   Mostly Cloudy
4:15 AM 26.6 °F 22.6 °F 15.8 °F 64% 30.04 in 10.0 mi WSW 3.5 mph - N/A   Mostly Cloudy
4:35 AM 24.8 °F 17.9 °F 15.8 °F 69% 30.05 in 10.0 mi East 5.8 mph - N/A   Scattered Clouds
4:55 AM 26.6 °F 21.2 °F 17.6 °F 69% 30.05 in 10.0 mi ENE 4.6 mph - N/A   Scattered Clouds
5:14 AM 26.6 °F - 15.8 °F 64% 30.03 in 10.0 mi Calm Calm - N/A   Scattered Clouds
5:35 AM 32.0 °F 27.5 °F 19.4 °F 60% 30.03 in 10.0 mi NNW 4.6 mph - N/A   Clear
6:15 AM 28.4 °F 20.4 °F 17.6 °F 64% 30.03 in 10.0 mi SE 8.1 mph - N/A   Clear
6:34 AM 30.2 °F 24.3 °F 17.6 °F 60% 30.07 in 10.0 mi SSE 5.8 mph - N/A   Scattered Clouds
6:55 AM 28.4 °F 22.2 °F 17.6 °F 64% 30.08 in 10.0 mi SSE 5.8 mph - N/A   Scattered Clouds
7:15 AM 30.2 °F 23.4 °F 17.6 °F 60% 30.08 in 10.0 mi NNW 6.9 mph - N/A   Mostly Cloudy
7:34 AM 30.2 °F - 17.6 °F 60% 30.08 in 10.0 mi Calm Calm - N/A   Overcast
7:55 AM 33.8 °F 28.6 °F 17.6 °F 52% 30.08 in 10.0 mi East 5.8 mph - N/A   Overcast
8:14 AM 35.6 °F 31.7 °F 21.2 °F 56% 30.08 in 10.0 mi ESE 4.6 mph - N/A   Overcast
8:35 AM 37.4 °F 33.8 °F 21.2 °F 52% 30.09 in 10.0 mi SE 4.6 mph - N/A   Overcast
8:54 AM 37.4 °F - 21.2 °F 52% 30.09 in 10.0 mi Calm Calm - N/A   Overcast
9:14 AM 42.8 °F 41.1 °F 24.8 °F 49% 30.08 in 10.0 mi West 3.5 mph - N/A   Overcast
9:35 AM 46.4 °F 39.0 °F 26.6 °F 46% 30.09 in 10.0 mi NW 19.6 mph 29.9 mph N/A   Overcast
9:55 AM 46.4 °F 38.5 °F 26.6 °F 46% 30.10 in 10.0 mi NW 21.9 mph 32.2 mph N/A   Overcast
10:14 AM 46.4 °F 40.1 °F 28.4 °F 50% 30.11 in 10.0 mi NW 15.0 mph 21.9 mph N/A   Overcast
10:35 AM 46.4 °F 39.0 °F 26.6 °F 46% 30.12 in 10.0 mi NNW 19.6 mph 25.3 mph N/A   Overcast
10:55 AM 46.4 °F 40.1 °F 26.6 °F 46% 30.12 in 10.0 mi NNW 15.0 mph 23.0 mph N/A   Overcast
11:15 AM 46.4 °F 41.1 °F 28.4 °F 50% 30.12 in 10.0 mi NNE 11.5 mph - N/A   Overcast
11:35 AM 50.0 °F - 28.4 °F 43% 30.11 in 10.0 mi North 9.2 mph - N/A   Overcast
11:54 AM 48.2 °F - 26.6 °F 43% 30.11 in 10.0 mi North 8.1 mph - N/A   Mostly Cloudy
12:15 PM 48.2 °F - 26.6 °F 43% 30.10 in 10.0 mi Calm Calm - N/A   Overcast
12:34 PM 53.6 °F - 28.4 °F 38% 30.10 in 10.0 mi WNW 9.2 mph - N/A   Overcast
12:55 PM 50.0 °F - 26.6 °F 40% 30.11 in 10.0 mi NNW 11.5 mph - N/A   Overcast
1:15 PM 53.6 °F - 24.8 °F 33% 30.11 in 10.0 mi NNW 12.7 mph 20.7 mph N/A   Mostly Cloudy
1:35 PM 53.6 °F - 23.0 °F 30% 30.11 in 10.0 mi NNW 21.9 mph 31.1 mph N/A   Scattered Clouds
1:55 PM 53.6 °F - 19.4 °F 26% 30.11 in 10.0 mi North 19.6 mph 26.5 mph N/A   Clear
2:15 PM 50.0 °F - 17.6 °F 28% 30.11 in 10.0 mi NNW 18.4 mph 26.5 mph N/A   Clear
2:35 PM 53.6 °F - 19.4 °F 26% 30.11 in 10.0 mi NNW 16.1 mph 23.0 mph N/A   Clear
2:54 PM 50.0 °F - 17.6 °F 28% 30.12 in 10.0 mi NNW 16.1 mph 23.0 mph N/A   Clear
3:15 PM 50.0 °F - 17.6 °F 28% 30.13 in 10.0 mi NNW 10.4 mph - N/A   Scattered Clouds
3:35 PM 48.2 °F - 15.8 °F 27% 30.14 in 10.0 mi NNW 10.4 mph - N/A   Overcast
3:54 PM 46.4 °F 39.8 °F 14.0 °F 27% 30.15 in 10.0 mi NW 16.1 mph - N/A   Overcast
4:15 PM 46.4 °F 39.2 °F 14.0 °F 27% 30.16 in 10.0 mi NW 18.4 mph 24.2 mph N/A   Overcast
4:34 PM 46.4 °F 40.1 °F 15.8 °F 29% 30.17 in 10.0 mi NW 15.0 mph - N/A   Overcast
4:55 PM 44.6 °F 37.4 °F 19.4 °F 37% 30.17 in 10.0 mi NW 16.1 mph 21.9 mph N/A   Overcast
5:15 PM 44.6 °F 37.4 °F 21.2 °F 39% 30.18 in 10.0 mi NW 16.1 mph 26.5 mph N/A   Overcast
5:35 PM 44.6 °F 36.9 °F 21.2 °F 39% 30.17 in 10.0 mi NW 18.4 mph 23.0 mph N/A   Overcast
5:55 PM 42.8 °F 38.6 °F 21.2 °F 42% 30.19 in 10.0 mi NNW 6.9 mph - N/A   Overcast
6:15 PM 41.0 °F 37.1 °F 21.2 °F 45% 30.19 in 10.0 mi North 5.8 mph - N/A   Mostly Cloudy
6:35 PM 41.0 °F 35.2 °F 19.4 °F 42% 30.19 in 10.0 mi NNW 9.2 mph - N/A   Scattered Clouds
6:55 PM 41.0 °F 35.8 °F 21.2 °F 45% 30.20 in 10.0 mi NNW 8.1 mph - N/A   Clear
7:15 PM 41.0 °F 33.5 °F 21.2 °F 45% 30.21 in 10.0 mi NW 13.8 mph - N/A   Clear
7:35 PM 41.0 °F 34.3 °F 21.2 °F 45% 30.22 in 10.0 mi NW 11.5 mph - N/A   Clear
7:55 PM 39.2 °F 32.0 °F 19.4 °F 45% 30.23 in 10.0 mi NW 11.5 mph - N/A   Clear
8:15 PM 37.4 °F 28.5 °F 19.4 °F 48% 30.24 in 10.0 mi NW 15.0 mph - N/A   Clear
8:35 PM 37.4 °F 29.3 °F 21.2 °F 52% 30.25 in 10.0 mi NW 12.7 mph - N/A   Clear
8:55 PM 37.4 °F 33.8 °F 21.2 °F 52% 30.26 in 10.0 mi NNW 4.6 mph - N/A   Clear
9:15 PM 37.4 °F - 19.4 °F 48% 30.27 in 10.0 mi Calm Calm - N/A   Clear
9:34 PM 35.6 °F - 19.4 °F 52% 30.28 in 10.0 mi Calm Calm - N/A   Clear
9:55 PM 35.6 °F 29.2 °F 19.4 °F 52% 30.28 in 10.0 mi WNW 8.1 mph - N/A   Clear
10:15 PM 33.8 °F 25.3 °F 17.6 °F 52% 30.27 in 10.0 mi NW 11.5 mph - N/A   Clear
10:35 PM 33.8 °F 24.8 °F 19.4 °F 56% 30.27 in 10.0 mi NNW 12.7 mph - N/A   Clear
11:15 PM 33.8 °F 22.2 °F 21.2 °F 60% 30.27 in 10.0 mi NW 20.7 mph - N/A   Clear
11:34 PM 33.8 °F 25.3 °F 19.4 °F 56% 30.29 in 10.0 mi NNW 11.5 mph - N/A   Clear
11:55 PM 33.8 °F 23.2 °F 21.2 °F 60% 30.28 in 10.0 mi NW 17.3 mph - N/A   Clear